CAPE
106 314 287 465 497 376 121 2 1 1 3 27 68 17 9 0 0 0 2 0 3 5 6 3 3 0 7 13 25 30 30 28 37 41 33 25 23 9 3 0 0 0 0
124 315 285 339 436 381 135 48 0 0 0 0 12 17 9 2 0 0 0 6 3 4 2 5 0 1 16 5 5 24 20 4 0 0 2 0 4 3 2 1 0 0 0
148 357 341 242 268 295 164 72 35 24 8 1 10 33 19 0 0 14 4 4 8 11 8 5 2 2 26 3 0 6 5 0 0 0 0 5 2 4 3 0 0 1 1
166 312 330 194 142 152 86 20 40 19 29 2 0 35 17 0 1 6 6 6 8 8 8 3 5 5 9 8 12 4 0 0 0 0 0 0 1 4 1 0 1 2 3
146 247 306 175 126 128 64 27 15 28 0 11 27 20 23 4 13 5 2 3 8 12 23 7 12 10 8 0 11 15 0 0 0 0 0 0 0 1 0 0 1 0 2
137 259 185 163 117 90 32 33 0 0 1 0 33 36 20 7 0 3 5 2 3 3 6 11 10 8 0 2 9 18 4 0 0 7 0 0 1 0 0 1 0 0 1
161 242 275 140 90 65 33 36 0 0 0 0 0 30 20 7 0 15 4 2 5 4 4 4 5 0 0 1 11 13 6 2 5 2 0 0 0 0 0 1 1 3 2
132 254 291 105 46 38 38 25 0 0 0 0 0 21 30 11 9 12 2 2 7 5 5 3 6 0 0 0 14 5 0 0 0 2 2 3 0 0 0 0 1 2 1
121 203 233 200 52 24 17 0 0 0 0 0 0 0 7 15 1 7 11 8 4 3 5 7 0 0 0 0 0 0 0 0 4 3 1 3 0 0 0 0 0 1 2
125 145 156 170 148 103 56 0 0 0 0 0 0 0 0 0 9 3 5 5 6 13 5 9 0 0 0 0 0 0 0 0 4 5 2 7 0 0 0 0 0 2 2
66 75 143 139 137 110 49 1 0 0 0 0 0 0 0 0 1 7 5 9 10 9 8 4 0 0 0 0 0 0 0 1 0 3 1 0 0 2 0 0 0 1 1
6 1 18 67 69 69 27 1 0 1 0 0 0 0 0 0 0 0 1 1 3 7 8 9 0 0 0 0 0 0 0 1 2 2 2 0 0 6 6 0 0 1 1
28 29 15 5 30 51 35 5 7 6 3 1 0 0 0 0 0 0 2 0 1 3 9 10 16 0 0 0 0 0 0 0 0 2 0 0 0 7 19 2 1 3 2
0 0 25 37 3 1 21 6 6 8 4 2 0 0 0 0 0 0 0 4 5 4 7 16 13 7 1 0 0 0 0 0 0 0 0 0 0 0 31 18 5 8 5
0 0 0 0 26 4 2 12 5 6 5 2 1 0 0 0 0 0 0 0 4 5 4 4 8 7 5 0 0 0 0 0 0 0 0 0 0 0 0 28 17 6 4
0 0 0 0 0 0 4 5 3 3 1 4 2 0 0 0 0 0 0 0 0 0 3 5 4 5 6 3 0 0 0 0 0 0 0 0 0 0 0 1 28 23 11
0 0 0 0 0 0 0 0 3 6 5 5 3 2 0 0 0 0 0 0 0 0 0 2 5 8 8 8 6 1 0 0 0 0 0 0 0 0 0 0 1 22 25
0 0 0 0 0 0 0 0 0 1 8 7 7 6 3 1 0 0 0 0 0 0 0 1 2 3 5 4 4 2 0 0 0 0 0 0 0 0 0 0 0 0 10
0 0 0 0 0 0 0 0 0 0 5 0 2 3 2 2 1 0 0 0 0 0 0 0 0 4 3 3 4 2 0 0 0 0 0 0 0 0 0 0 0 0 0
0 0 0 0 0 0 0 0 0 0 2 1 1 2 0 1 3 4 1 0 1 1 0 0 0 0 2 0 0 0 1 0 1 0 0 0 0 0 0 0 0 0 0
0 0 0 0 0 0 0 0 0 0 0 0 4 3 3 0 2 2 4 2 3 2 1 1 1 2 1 2 1 1 4 1 0 0 0 0 0 0 0 0 0 0 0
0 0 0 0 0 0 0 0 0 0 0 0 0 4 1 3 2 2 1 2 1 0 2 3 2 1 1 1 1 3 1 0 0 0 0 0 0 0 0 0 0 0 0
0 0 0 0 0 0 0 0 0 0 0 0 0 3 5 1 2 2 2 3 2 1 1 2 3 1 3 1 1 1 2 0 0 0 0 0 0 0 0 0 0 0 0
0 0 0 0 0 0 0 0 0 0 0 0 1 7 12 15 5 2 2 2 3 3 2 2 1 1 1 2 1 2 0 0 2 0 0 0 0 0 0 0 0 0 0
0 0 0 0 0 0 0 0 1 3 6 5 9 15 22 30 26 28 14 2 2 2 2 1 1 1 1 2 1 1 2 2 1 3 2 0 0 0 0 0 0 0 0
0 0 0 0 0 0 0 0 0 0 0 0 0 9 24 58 82 52 41 49 40 14 5 2 1 2 1 1 1 2 1 0 1 3 2 2 1 0 0 0 0 0 0
CIN
-33 -9 -11 -0 -0 -3 -12 -0 -0 -0 -0 -8 -4 -0 -0 -0 -0 -0 -2 -2 -1 -1 -0 -0 -0 -0 -7 -3 -4 -0 -0 -0 -0 -0 -0 -0 -1 -1 -0 -0 -0 -0 -0
-11 -0 -12 -1 -0 -0 -19 -33 -0 -0 -0 -0 -0 -1 -0 -0 -0 -0 -0 -1 -0 -0 -0 -0 -0 -0 -4 -12 -13 -0 -1 -20 -27 -0 -4 -0 -0 -0 -0 -0 -0 -0 -0
-6 -0 -0 -1 -2 -0 -3 -23 -45 -56 -2 -0 -0 -1 -1 -0 -0 -1 -0 -0 -1 -0 -0 -0 -1 -1 -5 -0 -0 -4 -14 -0 -0 -0 -0 -0 -0 -0 -0 -0 -0 -0 -0
-26 -4 -0 -3 -5 -6 -6 -63 -47 -93 -102 -0 -0 -2 -3 -0 -0 -0 -1 -0 -0 -0 -0 -0 -1 -6 -13 -5 -4 -5 -0 -0 -0 -0 -0 -0 -0 -0 -0 -0 -0 -0 -0
-41 -18 -16 -26 -6 -8 -15 -63 -58 -86 -0 -1 -2 -5 -0 -0 -0 -3 -0 -1 -0 -1 -2 -0 -4 -8 -9 -0 -11 -14 -0 -0 -0 -0 -0 -0 -0 -0 -0 -0 -0 -0 -2
-43 -18 -34 -38 -38 -31 -34 -22 -0 -0 -6 -0 -3 -2 -3 -0 -0 -1 -1 -0 -0 -1 -0 -1 -7 -8 -0 -14 -9 -5 -21 -0 -0 -1 -0 -0 -0 -0 -0 -0 -0 -0 -2
-47 -23 -17 -34 -32 -26 -43 -27 -0 -0 -0 -0 -0 -1 -12 -6 -0 -2 -0 -0 -1 -0 -1 -1 -6 -0 -0 -10 -7 -7 -20 -23 -3 -2 -0 -0 -0 -0 -0 -0 -0 -0 -0
-43 -16 -9 -46 -54 -46 -28 -42 -0 -0 -0 -0 -0 -2 -12 -13 -6 -2 -1 -0 -0 -0 -0 -0 -5 -0 -0 -0 -8 -12 -0 -0 -0 -0 -0 -0 -0 -0 -0 -0 -0 -0 -0
-40 -26 -18 -19 -42 -65 -65 -0 -0 -0 -0 -0 -0 -0 -1 -7 -13 -5 -3 -3 -0 -0 -0 -1 -0 -0 -0 -0 -0 -0 -0 -0 -0 -0 -0 -0 -0 -0 -0 -0 -0 -0 -0
-51 -43 -36 -27 -40 -13 -23 -0 -0 -0 -0 -0 -0 -0 -0 -0 -10 -12 -6 -7 -3 -2 -0 -1 -0 -0 -0 -0 -0 -0 -0 -0 -0 -0 -0 -0 -0 -0 -0 -0 -0 -0 -0
-75 -66 -42 -41 -39 -10 -7 -0 -0 -0 -0 -0 -0 -0 -0 -0 -1 -13 -9 -4 -6 -6 -4 -1 -0 -0 -0 -0 -0 -0 -0 -0 -0 -0 -0 -0 -0 -0 -0 -0 -0 -0 -0
-20 -0 -25 -46 -34 -31 -43 -0 -0 -0 -0 -0 -0 -0 -0 -0 -0 -0 -0 -5 -9 -9 -5 -4 -0 -0 -0 -0 -0 -0 -0 -0 -1 -1 -0 -0 -0 -0 -0 -0 -0 -0 -0
-67 -76 -86 -12 -81 -42 -39 -0 -0 -0 -0 -0 -0 -0 -0 -0 -0 -0 -0 -0 -0 -5 -0 -1 -0 -0 -0 -0 -0 -0 -0 -0 -0 -0 -0 -0 -0 -0 -0 -0 -0 -0 -0
-0 -0 -89 -94 -6 -0 -51 -0 -0 -0 -0 -0 -0 -0 -0 -0 -0 -0 -0 -0 -0 -0 -0 -0 -0 -0 -0 -0 -0 -0 -0 -0 -0 -0 -0 -0 -0 -0 -0 -0 -0 -0 -0
-0 -0 -0 -0 -95 -0 -0 -26 -0 -0 -0 -0 -0 -0 -0 -0 -0 -0 -0 -0 -0 -1 -0 -0 -0 -0 -0 -0 -0 -0 -0 -0 -0 -0 -0 -0 -0 -0 -0 -0 -0 -0 -0
-0 -0 -0 -0 -0 -0 -0 -0 -0 -0 -0 -0 -0 -0 -0 -0 -0 -0 -0 -0 -0 -0 -0 -0 -0 -0 -1 -0 -0 -0 -0 -0 -0 -0 -0 -0 -0 -0 -0 -0 -0 -0 -0
-0 -0 -0 -0 -0 -0 -0 -0 -0 -0 -0 -0 -0 -0 -0 -0 -0 -0 -0 -0 -0 -0 -0 -0 -0 -0 -1 -0 -0 -0 -0 -0 -0 -0 -0 -0 -0 -0 -0 -0 -0 -0 -0
-0 -0 -0 -0 -0 -0 -0 -0 -0 -0 -0 -0 -0 -0 -0 -0 -0 -0 -0 -0 -0 -0 -0 -0 -1 -0 -0 -0 -0 -0 -0 -0 -0 -0 -0 -0 -0 -0 -0 -0 -0 -0 -0
-0 -0 -0 -0 -0 -0 -0 -0 -0 -0 -0 -2 -0 -0 -0 -0 -0 -0 -0 -0 -0 -0 -0 -0 -0 -0 -1 -0 -0 -0 -0 -0 -0 -0 -0 -0 -0 -0 -0 -0 -0 -0 -0
-0 -0 -0 -0 -0 -0 -0 -0 -0 -0 -0 -0 -0 -0 -0 -0 -0 -0 -0 -0 -0 -0 -0 -0 -0 -0 -0 -0 -1 -0 -0 -0 -1 -0 -0 -0 -0 -0 -0 -0 -0 -0 -0
-0 -0 -0 -0 -0 -0 -0 -0 -0 -0 -0 -0 -0 -0 -0 -0 -0 -0 -0 -0 -0 -0 -0 -0 -0 -0 -0 -0 -1 -0 -0 -0 -0 -0 -0 -0 -0 -0 -0 -0 -0 -0 -0
-0 -0 -0 -0 -0 -0 -0 -0 -0 -0 -0 -0 -0 -0 -0 -1 -0 -0 -0 -0 -0 -0 -0 -0 -0 -0 -0 -0 -0 -0 -0 -0 -0 -0 -0 -0 -0 -0 -0 -0 -0 -0 -0
-0 -0 -0 -0 -0 -0 -0 -0 -0 -0 -0 -0 -0 -0 -0 -0 -0 -0 -0 -0 -0 -0 -0 -0 -0 -0 -0 -0 -0 -0 -0 -0 -0 -0 -0 -0 -0 -0 -0 -0 -0 -0 -0
-0 -0 -0 -0 -0 -0 -0 -0 -0 -0 -0 -0 -0 -0 -0 -0 -0 -0 -0 -0 -0 -0 -0 -0 -0 -0 -0 -0 -0 -0 -0 -0 -0 -0 -0 -0 -0 -0 -0 -0 -0 -0 -0
-0 -0 -0 -0 -0 -0 -0 -0 -0 -1 -1 -0 -0 -1 -123 -116 -119 -107 -136 -10 -0 -0 -0 -0 -0 -0 -0 -0 -0 -0 -0 -0 -0 -0 -0 -0 -0 -0 -0 -0 -0 -0 -0
-0 -0 -0 -0 -0 -0 -0 -0 -0 -0 -0 -0 -0 -86 -119 -80 -71 -83 -69 -53 -73 -109 -39 -0 -0 -0 -0 -0 -0 -0 -0 -0 -0 -0 -0 -0 -0 -0 -0 -0 -0 -0 -0
Wind_Speed
22 24 24 25 25 25 24 24 23 23 23 23 22 22 21 21 21 17 16 12 11 12 13 13 14 13 12 15 17 17 18 20 20 21 22 23 23 23 23 24 24 24 25
23 24 24 24 23 24 23 23 22 21 21 21 21 20 21 20 20 17 15 12 11 13 15 15 14 15 16 15 15 16 18 19 19 19 21 22 22 23 23 23 24 23 24
24 24 23 23 23 23 21 20 20 20 19 19 19 20 20 20 20 18 15 12 11 13 13 14 13 13 14 15 15 16 17 17 18 19 19 20 21 22 22 22 22 22 22
24 24 22 22 22 22 21 20 19 18 18 18 18 18 18 19 19 18 15 10 10 12 13 14 14 12 13 14 14 15 15 16 16 17 18 19 20 21 21 21 21 21 20
23 23 22 21 21 20 19 19 18 17 17 17 16 16 16 17 17 17 15 11 10 10 11 13 13 13 14 14 14 14 14 15 16 17 18 19 19 20 21 19 19 19 19
23 22 21 20 19 18 17 16 16 16 16 16 15 15 16 16 16 15 14 12 11 11 11 11 13 14 14 14 14 13 14 14 15 16 18 18 18 19 19 19 18 18 18
21 20 20 19 18 16 15 14 15 15 14 14 14 14 14 14 15 15 14 12 11 11 10 11 14 14 14 15 14 12 13 14 15 16 17 17 17 18 18 17 17 16 16
19 18 17 17 17 17 15 12 11 12 12 12 13 13 12 12 12 13 13 13 11 11 10 12 13 14 14 15 13 12 12 13 14 15 16 16 16 17 16 16 15 15 14
17 17 17 17 16 16 14 13 11 10 11 11 11 11 10 10 10 10 10 10 10 9 10 11 12 13 14 14 14 12 12 12 14 15 16 16 15 15 14 14 13 13 13
17 16 15 15 14 15 13 13 12 11 9 9 10 9 8 8 7 7 7 7 7 8 8 10 11 13 15 15 14 14 12 13 14 14 15 16 14 14 13 13 12 12 11
15 15 14 14 14 14 13 10 10 10 9 8 7 7 7 7 6 6 5 6 5 6 6 7 8 12 13 15 15 15 13 14 14 14 15 14 13 12 12 11 11 10 9
13 12 13 13 13 13 12 12 10 9 8 6 6 5 5 5 4 4 3 3 3 3 3 5 6 8 11 12 13 15 14 15 15 15 15 13 12 10 11 11 10 9 8
14 13 13 12 12 12 12 10 9 9 10 8 8 4 3 3 5 4 4 4 3 2 4 5 7 7 8 11 13 15 16 16 17 17 17 14 12 10 9 10 9 8 7
20 17 15 13 12 12 11 11 10 9 7 8 7 6 4 2 1 3 6 7 7 7 7 7 8 8 10 11 11 13 15 17 17 17 17 14 12 11 10 9 9 8 6
30 24 13 8 10 8 7 9 9 8 7 7 6 5 4 3 2 2 3 5 8 9 9 9 10 11 11 13 14 15 15 16 17 18 18 15 12 12 12 10 9 8 6
32 33 27 5 4 4 5 5 5 5 6 6 5 5 5 4 4 5 5 6 8 9 9 10 11 13 16 17 17 17 18 19 19 20 20 19 15 14 13 11 10 9 8
34 31 27 22 13 7 6 7 6 6 5 6 6 6 6 6 7 7 7 8 10 11 11 13 13 15 17 18 20 22 22 22 22 22 21 20 19 16 14 12 11 10 9
33 30 28 25 19 16 14 13 11 11 10 9 10 10 10 9 9 10 10 11 12 13 14 15 15 17 19 20 21 22 23 24 23 24 24 23 21 21 18 15 13 12 11
32 31 30 27 24 23 21 19 17 17 16 16 16 15 13 12 12 13 14 14 14 15 16 17 18 19 20 21 23 25 25 25 27 27 26 25 24 23 23 20 16 15 14
32 31 32 30 29 27 25 23 22 21 21 20 18 18 18 17 16 17 18 18 17 17 17 18 18 20 22 24 25 26 27 28 28 29 29 28 27 26 25 24 22 20 18
30 32 32 32 31 28 25 23 23 24 24 23 22 22 22 21 20 20 20 20 19 20 20 21 21 21 22 25 27 30 31 29 26 27 29 30 30 29 28 26 25 24 21
30 31 32 32 31 28 25 24 24 25 24 25 25 24 23 22 22 21 22 23 23 23 23 23 23 24 24 24 25 28 33 35 29 27 26 28 29 30 30 29 28 26 25
29 30 30 30 31 30 29 26 25 25 25 26 26 25 25 24 24 24 25 26 26 25 26 26 26 26 29 27 25 27 32 35 36 30 27 26 28 29 29 28 29 29 29
27 27 28 29 30 30 28 25 25 27 28 27 27 27 26 25 26 26 27 28 30 29 29 30 29 29 30 32 31 29 32 37 38 43 34 30 29 29 30 30 30 29 28
26 27 27 28 29 29 28 27 25 27 27 27 28 28 28 28 27 29 29 30 31 32 32 32 32 32 32 34 34 34 35 37 39 42 47 42 35 34 35 34 33 32 30
25 26 27 28 28 28 27 27 26 27 27 28 29 30 30 29 29 29 30 31 32 32 33 33 34 34 35 35 35 36 36 37 38 40 45 47 46 40 35 37 37 36 35
Wind_Direction
145 140 139 132 124 118 103 108 91 83 88 91 83 75 74 68 66 44 45 17 15 15 18 19 14 5 355 17 22 23 31 31 44 43 44 39 38 36 36 33 32 32 37
133 144 138 132 122 115 105 107 96 76 68 77 94 83 79 70 67 47 35 20 13 26 34 28 22 19 24 17 21 28 36 36 38 36 42 40 30 28 29 28 29 34 41
128 131 137 132 124 121 105 94 91 90 69 55 79 82 79 69 69 68 43 28 11 26 28 29 16 354 5 24 28 31 36 35 35 33 29 31 26 21 22 27 32 35 43
128 137 133 131 125 118 114 116 97 74 68 64 66 67 63 71 85 73 44 5 359 16 26 31 28 344 356 9 28 33 34 33 30 26 20 23 24 17 20 29 33 35 43
137 133 127 125 121 116 115 116 110 96 88 82 85 74 73 74 76 72 58 13 340 346 13 36 358 353 351 353 15 44 37 33 25 21 18 17 17 13 19 29 35 35 32
142 143 127 118 115 113 110 115 109 103 98 97 99 80 72 79 76 65 64 27 7 348 0 28 345 340 338 337 358 42 35 29 30 12 14 13 16 18 23 28 32 36 36
138 138 131 132 125 110 110 103 108 106 101 98 114 113 81 79 88 91 81 47 22 18 10 354 333 340 344 335 356 31 30 24 12 12 11 16 18 19 22 26 31 35 35
134 133 128 130 134 132 115 91 75 86 98 90 102 87 86 76 80 101 95 86 56 31 17 351 329 328 337 344 354 11 24 21 12 12 15 13 17 18 22 24 28 30 33
134 132 135 143 141 149 139 134 110 81 92 97 86 86 88 91 80 88 84 87 79 66 18 2 350 343 338 340 347 359 5 10 2 3 4 8 15 16 20 22 27 28 32
143 145 137 139 140 154 150 154 143 128 108 89 100 88 86 90 105 83 80 75 66 58 45 9 352 342 334 334 339 344 352 350 352 357 358 359 9 13 18 21 24 26 28
148 151 149 151 155 160 158 143 143 150 136 120 99 96 74 95 97 106 83 37 50 48 41 30 9 345 337 332 331 332 336 338 341 344 349 358 5 11 14 16 19 21 23
162 154 161 162 165 166 165 163 156 147 146 135 135 110 102 61 67 50 42 68 70 53 35 16 8 1 344 337 335 330 330 331 333 336 340 348 355 3 7 10 13 15 17
191 180 179 174 176 178 176 166 160 160 164 162 162 142 111 35 4 358 1 353 351 348 348 347 344 344 345 340 332 326 324 325 326 328 329 336 343 350 356 1 4 8 12
228 215 204 190 186 187 185 184 185 177 166 170 168 170 162 153 338 334 332 329 323 325 321 322 326 325 325 326 327 326 323 322 323 325 325 329 332 336 338 345 350 355 0
276 247 210 197 198 193 194 194 193 192 189 190 187 186 191 208 244 285 300 305 312 313 311 308 309 311 312 313 314 314 316 316 316 318 320 321 319 322 324 326 332 338 338
296 285 309 316 236 243 230 224 220 217 214 215 218 217 218 237 273 289 293 294 298 300 302 302 302 305 306 306 306 307 308 308 309 310 312 314 311 309 310 311 313 317 320
296 303 311 318 322 301 279 275 265 264 266 260 261 260 252 260 270 278 289 294 297 298 298 300 300 300 301 301 300 301 301 302 303 304 305 307 308 303 297 296 296 300 299
302 307 309 310 311 310 306 305 299 298 294 293 295 294 281 274 270 279 283 289 297 297 298 298 298 298 298 298 298 299 298 298 297 297 299 300 301 301 299 283 282 282 284
304 305 308 310 307 304 304 305 304 303 302 301 299 295 290 280 280 281 288 292 294 295 295 295 296 297 299 299 299 299 298 297 295 295 293 293 293 294 295 292 278 271 272
307 306 306 307 307 306 304 303 303 301 300 300 298 294 293 294 288 289 290 290 291 291 292 293 290 293 294 297 298 299 299 297 296 293 291 291 290 289 287 286 287 279 260
313 310 308 307 307 307 306 304 301 300 301 299 298 295 293 292 291 289 290 291 289 287 290 292 293 293 293 296 300 298 298 296 292 291 291 288 287 286 284 282 281 282 280
319 318 316 312 310 310 308 305 305 305 306 303 304 301 296 291 289 289 291 293 292 290 290 290 290 292 293 294 298 301 302 299 295 292 291 290 287 285 282 280 278 275 275
322 324 324 323 320 314 309 307 306 306 306 306 306 305 301 296 291 289 290 292 294 291 291 290 288 287 291 292 287 294 303 302 303 300 296 293 292 290 287 285 281 276 274
324 329 330 329 328 326 321 311 307 306 306 309 309 308 306 302 298 294 292 292 292 293 292 292 291 287 287 289 292 284 286 295 301 300 298 295 291 288 287 287 285 282 279
327 330 333 334 334 333 331 328 318 311 312 313 313 311 309 306 302 299 297 295 293 293 293 292 292 289 287 286 286 291 287 288 290 292 295 296 294 288 285 284 284 283 281
326 329 331 333 335 338 338 337 331 324 320 318 316 313 312 311 308 305 301 298 296 294 294 293 292 290 288 287 287 285 286 291 292 289 289 290 292 294 290 284 281 281 281